Regional Weather Roundup
Issued by NWS

Home | Current Version | Previous Version | Graphics & Text | Print | Product List | Glossary On
Versions: 1 2 3 4 5 6 7 8 9 10 11 12 13 14 15 16 17 18 19 20 21 22 23 24 25 26 27 28 29 30 31 32 33 34 35 36 37 38 39 40 41 42 43 44 45 46 47 48 49 50
000
ASUS43 KLSX 182359
RWRMO

WEATHER SUMMARY FOR MISSOURI
NATIONAL WEATHER SERVICE SPRINGFIELD MO
700 PM CDT FRI APR 18 2014

NOTE: "FAIR" INDICATES FEW OR NO CLOUDS BELOW 12,000 FEET WITH NO
       SIGNIFICANT WEATHER AND/OR OBSTRUCTIONS TO VISIBILITY.
       CURRENT SKY AND/OR WEATHER CONDITIONS ARE NOT AVAILABLE FOR
       CHILLICOTHE AND FARMINGTON.

MOZ001>031-035>038-043-044-053-054-190100-
...NORTHERN AND WESTERN MISSOURI...

CITY           SKY/WX    TMP DP  RH WIND       PRES   REMARKS
KANSAS CTY INT MOSUNNY   66  39  37 SE12      30.15F
6HR MIN TEMP:  61; 6HR MAX TEMP:  68;

KANSAS C DTWN  SUNNY     68  40  35 SE7       30.15F
6HR MIN TEMP:  63; 6HR MAX TEMP:  70;

LEE`S SUMMIT   SUNNY     66  41  40 SE8       30.17F
6HR MIN TEMP:  61; 6HR MAX TEMP:  68;

ST JOSEPH      SUNNY     67  38  34 S14       30.14F
6HR MIN TEMP:  60; 6HR MAX TEMP:  69;

KIRKSVILLE     CLEAR     64  37  36 SE8       30.21F
6HR MIN TEMP:  59; 6HR MAX TEMP:  67;


$$
MOZ066>068-077>081-088>096-101>105-190100-
...SOUTHWEST MISSOURI...

CITY           SKY/WX    TMP DP  RH WIND       PRES   REMARKS
SPRINGFIELD    MOCLDY    70  39  32 E8        30.15F
6HR MIN TEMP:  67; 6HR MAX TEMP:  73;

JOPLIN         SUNNY     69  41  36 VRB6      30.14F
6HR MIN TEMP:  65; 6HR MAX TEMP:  71;


$$
MOZ032>034-039>042-045>050-055>058-069>072-190100-
...CENTRAL MISSOURI...

CITY           SKY/WX    TMP DP  RH WIND       PRES   REMARKS
COLUMBIA       CLEAR     67  42  40 E3        30.19S
6HR MIN TEMP:  64; 6HR MAX TEMP:  70;

JEFFERSON CITY CLEAR     69  36  29 SE3       30.19S
6HR MIN TEMP:  64; 6HR MAX TEMP:  71;

ROLLA          CLEAR     66  41  40 NE5       30.17F
6HR MIN TEMP:  65; 6HR MAX TEMP:  71;

SEDALIA        CLEAR     67  44  43 E6        30.18F
6HR MIN TEMP:  62; 6HR MAX TEMP:  70;

OSAGE BEACH    CLEAR     68  37  32 NE7       30.19S

$$
MOZ051-052-059>065-190100-
...EAST CENTRAL MISSOURI...

CITY           SKY/WX    TMP DP  RH WIND       PRES   REMARKS
ST LOUIS INTL  CLEAR     68  39  34 NE7       30.21F
6HR MIN TEMP:  65; 6HR MAX TEMP:  72;

SPIRIT OF STL  CLEAR     66  39  37 NE5       30.20F
6HR MIN TEMP:  64; 6HR MAX TEMP:  70;

ST CHARLES     CLEAR     67  39  35 NE6       30.20F
6HR MIN TEMP:  64; 6HR MAX TEMP:  70;


$$
MOZ072>076-082>087-097>100-106>115-190100-
...SOUTH CENTRAL AND SOUTHEAST MISSOURI...

CITY           SKY/WX    TMP DP  RH WIND       PRES   REMARKS
CAPE GIRARDEAU PTCLDY    67  43  41 NE8       30.18S
6HR MIN TEMP:  66; 6HR MAX TEMP:  75;

FARMINGTON     PTCLDY    64  43  45 E8        30.23S
6HR MIN TEMP:  64; 6HR MAX TEMP:  70;

POPLAR BLUFF   CLEAR     70  43  37 E6        30.16S
6HR MIN TEMP:  70; 6HR MAX TEMP:  73;

WEST PLAINS    PTCLDY    70  40  33 E5        30.17S
6HR MIN TEMP:  68; 6HR MAX TEMP:  73;


$$



USA.gov is the U.S. government's official web portal to all federal, state and local government web resources and services.